Вернуться в каталог

FENGYUN 1C DEB

АктивенSSO
NORAD 30979·DEBRIS·🇨🇳 China

Запущен May 10, 1999 с Taiyuan Satellite Launch Center

Loading…

Ближайшие Пролёты (ближайшие 24 часа)

TLE

СвежийSource: Space-Track

Эпоха: Sep 14, 2026, 15:54 UTC

1 30979U 99025BBV 26257.66259279  .00007016  00000-0  64875-3 0  9998
2 30979  97.8026 154.6029 0180557  61.8502 329.5623 14.83230409 32073

Отслеживайте FENGYUN 1C DEB в реальном времени с AllMySat

Download on the App Store